Location: Coupvray
(48.8929°N, 2.7967°E)
Time: 08:29:20
(UTC+00:00)

Cosmos 405 Rocket - Pass Details

Date: 14 July 2020
Orbit: 489 x 554 km, 81.3° (Epoch: 14 August)

Event Time Altitude Azimuth Distance (km) Brightness Sun altitude
Exits shadow 00:52:19 31° 139° (SE) 920 3.6 -18.3°
Maximum altitude 00:53:31 41° 95° (E) 755 3.5 -18.3°
Drops below altitude 10° 00:57:05 10° 25° (NNE) 1,724 6.6 -18.1°
Sets 00:59:16 0° 18° (NNE) 2,604 8.0 -18.0°
